Location: Newark
(43.0117°N, 7.5572°W)
Time: 21:01:16
(UTC+00:00)

X-37B - Pass Details

Date: 04 October 2020
Orbit: 382 x 392 km, 45.0° (Epoch: 15 October)

Event Time Altitude Azimuth Distance (km) Brightness Sun altitude
Rises 18:44:28 0° 227° (SW) 2,258 5.2 -7.9°
Reaches altitude 10° 18:46:39 10° 217° (SW) 1,404 3.9 -8.3°
Maximum altitude 18:49:32 33° 152° (SSE) 672 1.5 -8.9°
Enters shadow 18:51:52 14° 90° (E) 1,205 2.4 -9.3°
